contact: severine.martini@mio.osupytheas.fr, dominique.lefevre@mio.osupytheas.fr
Project:EMSO Ligure-ouest http://www.emso-fr.org/EMSO-France
Sensor Microcat Sea-Bird SBE37 SMP,  Serial 57510 
DOI : "https://doi.org/10.17882/97948" 
Title:EMSO Ligure Ouest : Data Bathybot capteur Microcat - deploiement 2023-04-28
Datetime,Profondeur,Latitude,Longitude,Temperature,Conductivite,Pression,Salinite
time,m,degree_north,degree_east,degree_C,S/m,db,PSU 
2023-10-12T00:00:49,2420,42.8014,5.9826,13.2970,4.59926,2453.544,38.4896
2023-10-12T00:03:49,2420,42.8014,5.9826,13.2985,4.59928,2453.596,38.4883
2023-10-12T00:06:49,2420,42.8014,5.9826,13.2979,4.59918,2453.559,38.4878
2023-10-12T00:09:49,2420,42.8014,5.9826,13.2975,4.59925,2453.559,38.4889
2023-10-12T00:12:49,2420,42.8014,5.9826,13.2972,4.59919,2453.544,38.4887
2023-10-12T00:15:49,2420,42.8014,5.9826,13.2972,4.59920,2453.582,38.4887
2023-10-12T00:18:49,2420,42.8014,5.9826,13.2970,4.59926,2453.567,38.4895
2023-10-12T00:21:49,2420,42.8014,5.9826,13.2976,4.59931,2453.559,38.4894
2023-10-12T00:24:49,2420,42.8014,5.9826,13.2968,4.59921,2453.544,38.4892
2023-10-12T00:27:49,2420,42.8014,5.9826,13.2970,4.59921,2453.559,38.4890
2023-10-12T00:30:49,2420,42.8014,5.9826,13.2974,4.59926,2453.567,38.4891
2023-10-12T00:33:49,2420,42.8014,5.9826,13.2973,4.59925,2453.582,38.4891
2023-10-12T00:36:49,2420,42.8014,5.9826,13.2973,4.59923,2453.559,38.4889
2023-10-12T00:39:49,2420,42.8014,5.9826,13.2985,4.59922,2453.559,38.4877
2023-10-12T00:42:49,2420,42.8014,5.9826,13.2983,4.59937,2453.559,38.4892
2023-10-12T00:45:49,2420,42.8014,5.9826,13.2983,4.59922,2453.582,38.4879
2023-10-12T00:48:49,2420,42.8014,5.9826,13.2976,4.59920,2453.544,38.4883
2023-10-12T00:51:49,2420,42.8014,5.9826,13.2973,4.59919,2453.582,38.4885
2023-10-12T00:54:49,2420,42.8014,5.9826,13.2970,4.59925,2453.567,38.4894
2023-10-12T00:57:49,2420,42.8014,5.9826,13.2973,4.59914,2453.582,38.4881
2023-10-12T01:00:49,2420,42.8014,5.9826,13.2973,4.59922,2453.582,38.4888
2023-10-12T01:03:49,2420,42.8014,5.9826,13.2971,4.59917,2453.567,38.4885
2023-10-12T01:06:49,2420,42.8014,5.9826,13.2979,4.59924,2453.522,38.4885
2023-10-12T01:09:49,2420,42.8014,5.9826,13.2973,4.59917,2453.559,38.4883
2023-10-12T01:12:49,2420,42.8014,5.9826,13.2972,4.59927,2453.559,38.4894
2023-10-12T01:15:49,2420,42.8014,5.9826,13.2973,4.59917,2453.559,38.4884
2023-10-12T01:18:49,2420,42.8014,5.9826,13.2972,4.59925,2453.582,38.4892
2023-10-12T01:21:49,2420,42.8014,5.9826,13.2973,4.59911,2453.582,38.4878
2023-10-12T01:24:49,2420,42.8014,5.9826,13.2970,4.59920,2453.604,38.4889
2023-10-12T01:27:49,2420,42.8014,5.9826,13.2975,4.59923,2453.604,38.4888
2023-10-12T01:30:49,2420,42.8014,5.9826,13.2973,4.59930,2453.567,38.4895
2023-10-12T01:33:49,2420,42.8014,5.9826,13.2973,4.59923,2453.544,38.4890
2023-10-12T01:36:50,2420,42.8014,5.9826,13.2973,4.59922,2453.582,38.4889
2023-10-12T01:39:49,2420,42.8014,5.9826,13.2978,4.59928,2453.582,38.4889
2023-10-12T01:42:49,2420,42.8014,5.9826,13.2970,4.59931,2453.619,38.4900
2023-10-12T01:45:49,2420,42.8014,5.9826,13.2972,4.59926,2453.582,38.4893
2023-10-12T01:48:49,2420,42.8014,5.9826,13.2966,4.59926,2453.544,38.4900
2023-10-12T01:51:49,2420,42.8014,5.9826,13.2982,4.59928,2453.604,38.4885
2023-10-12T01:54:49,2420,42.8014,5.9826,13.2971,4.59919,2453.582,38.4887
2023-10-12T01:57:49,2420,42.8014,5.9826,13.2968,4.59920,2453.559,38.4891
2023-10-12T02:00:49,2420,42.8014,5.9826,13.2978,4.59926,2453.590,38.4888
2023-10-12T02:03:49,2420,42.8014,5.9826,13.2970,4.59928,2453.567,38.4897
2023-10-12T02:06:49,2420,42.8014,5.9826,13.2976,4.59928,2453.604,38.4891
2023-10-12T02:09:49,2420,42.8014,5.9826,13.2978,4.59928,2453.604,38.4889
2023-10-12T02:12:49,2420,42.8014,5.9826,13.2978,4.59926,2453.582,38.4888
2023-10-12T02:15:49,2420,42.8014,5.9826,13.2968,4.59923,2453.559,38.4894
2023-10-12T02:18:49,2420,42.8014,5.9826,13.2975,4.59925,2453.619,38.4888
2023-10-12T02:21:49,2420,42.8014,5.9826,13.2972,4.59927,2453.604,38.4894
2023-10-12T02:24:49,2420,42.8014,5.9826,13.2980,4.59934,2453.559,38.4892
2023-10-12T02:27:49,2420,42.8014,5.9826,13.2976,4.59928,2453.641,38.4891
2023-10-12T02:30:50,2420,42.8014,5.9826,13.2971,4.59922,2453.627,38.4890
2023-10-12T02:33:49,2420,42.8014,5.9826,13.2970,4.59923,2453.582,38.4892
2023-10-12T02:36:49,2420,42.8014,5.9826,13.2975,4.59928,2453.604,38.4892
2023-10-12T02:39:49,2420,42.8014,5.9826,13.2971,4.59922,2453.567,38.4890
2023-10-12T02:42:49,2420,42.8014,5.9826,13.2970,4.59926,2453.604,38.4895
2023-10-12T02:45:49,2420,42.8014,5.9826,13.2968,4.59918,2453.627,38.4889
2023-10-12T02:48:49,2420,42.8014,5.9826,13.2973,4.59914,2453.627,38.4880
2023-10-12T02:51:49,2420,42.8014,5.9826,13.2975,4.59928,2453.590,38.4892
2023-10-12T02:54:49,2420,42.8014,5.9826,13.2972,4.59923,2453.604,38.4890
2023-10-12T02:57:49,2420,42.8014,5.9826,13.2968,4.59922,2453.641,38.4892
2023-10-12T03:00:49,2420,42.8014,5.9826,13.2968,4.59925,2453.627,38.4895
2023-10-12T03:03:49,2420,42.8014,5.9826,13.2973,4.59920,2453.604,38.4885
2023-10-12T03:06:49,2420,42.8014,5.9826,13.2974,4.59923,2453.649,38.4888
2023-10-12T03:09:49,2420,42.8014,5.9826,13.2975,4.59922,2453.664,38.4886
2023-10-12T03:12:49,2420,42.8014,5.9826,13.2968,4.59923,2453.649,38.4894
2023-10-12T03:15:49,2420,42.8014,5.9826,13.2977,4.59922,2453.649,38.4884
2023-10-12T03:18:49,2420,42.8014,5.9826,13.2988,4.59937,2453.612,38.4887
2023-10-12T03:21:49,2420,42.8014,5.9826,13.2973,4.59927,2453.649,38.4893
2023-10-12T03:24:49,2420,42.8014,5.9826,13.2975,4.59923,2453.649,38.4886
2023-10-12T03:27:49,2420,42.8014,5.9826,13.2973,4.59918,2453.672,38.4884
2023-10-12T03:30:49,2420,42.8014,5.9826,13.2974,4.59928,2453.649,38.4893
2023-10-12T03:33:49,2420,42.8014,5.9826,13.2973,4.59926,2453.635,38.4891
2023-10-12T03:36:49,2420,42.8014,5.9826,13.2966,4.59927,2453.627,38.4899
2023-10-12T03:39:49,2420,42.8014,5.9826,13.2978,4.59931,2453.649,38.4892
2023-10-12T03:42:49,2420,42.8014,5.9826,13.2971,4.59929,2453.635,38.4897
2023-10-12T03:45:49,2420,42.8014,5.9826,13.2973,4.59923,2453.672,38.4888
2023-10-12T03:48:49,2420,42.8014,5.9826,13.2970,4.59918,2453.635,38.4887
2023-10-12T03:51:49,2420,42.8014,5.9826,13.2978,4.59919,2453.649,38.4880
2023-10-12T03:54:49,2420,42.8014,5.9826,13.2969,4.59919,2453.672,38.4889
2023-10-12T03:57:49,2420,42.8014,5.9826,13.2982,4.59931,2453.672,38.4887
2023-10-12T04:00:50,2420,42.8014,5.9826,13.2971,4.59923,2453.672,38.4890
2023-10-12T04:03:49,2420,42.8014,5.9826,13.2974,4.59928,2453.672,38.4893
2023-10-12T04:06:49,2420,42.8014,5.9826,13.2977,4.59920,2453.717,38.4882
2023-10-12T04:09:49,2420,42.8014,5.9826,13.2968,4.59926,2453.680,38.4896
2023-10-12T04:12:49,2420,42.8014,5.9826,13.2975,4.59926,2453.672,38.4889
2023-10-12T04:15:49,2420,42.8014,5.9826,13.2973,4.59927,2453.672,38.4893
2023-10-12T04:18:49,2420,42.8014,5.9826,13.2979,4.59926,2453.649,38.4886
2023-10-12T04:21:49,2420,42.8014,5.9826,13.2973,4.59926,2453.695,38.4891
2023-10-12T04:24:49,2420,42.8014,5.9826,13.2975,4.59930,2453.695,38.4893
2023-10-12T04:27:49,2420,42.8014,5.9826,13.2985,4.59932,2453.672,38.4886
2023-10-12T04:30:49,2420,42.8014,5.9826,13.2972,4.59926,2453.695,38.4893
2023-10-12T04:33:49,2420,42.8014,5.9826,13.2971,4.59927,2453.695,38.4894
2023-10-12T04:36:49,2420,42.8014,5.9826,13.2978,4.59937,2453.672,38.4896
2023-10-12T04:39:49,2420,42.8014,5.9826,13.2979,4.59925,2453.702,38.4885
2023-10-12T04:42:49,2420,42.8014,5.9826,13.2976,4.59927,2453.649,38.4890
2023-10-12T04:45:49,2420,42.8014,5.9826,13.2986,4.59930,2453.680,38.4882
2023-10-12T04:48:49,2420,42.8014,5.9826,13.2974,4.59928,2453.672,38.4892
2023-10-12T04:51:49,2420,42.8014,5.9826,13.2980,4.59924,2453.709,38.4883
2023-10-12T04:54:49,2420,42.8014,5.9826,13.2976,4.59926,2453.649,38.4889
2023-10-12T04:57:49,2420,42.8014,5.9826,13.2973,4.59928,2453.680,38.4893
2023-10-12T05:00:49,2420,42.8014,5.9826,13.2968,4.59925,2453.695,38.4895
2023-10-12T05:03:49,2420,42.8014,5.9826,13.2979,4.59929,2453.717,38.4888
2023-10-12T05:06:49,2420,42.8014,5.9826,13.2968,4.59922,2453.680,38.4892
2023-10-12T05:09:49,2420,42.8014,5.9826,13.2976,4.59923,2453.680,38.4885
2023-10-12T05:12:49,2420,42.8014,5.9826,13.2975,4.59924,2453.717,38.4887
2023-10-12T05:15:49,2420,42.8014,5.9826,13.2973,4.59923,2453.717,38.4889
2023-10-12T05:18:49,2420,42.8014,5.9826,13.2974,4.59926,2453.717,38.4890
2023-10-12T05:21:49,2420,42.8014,5.9826,13.2972,4.59923,2453.695,38.4889
2023-10-12T05:24:49,2420,42.8014,5.9826,13.2975,4.59929,2453.695,38.4892
2023-10-12T05:27:49,2420,42.8014,5.9826,13.2970,4.59923,2453.695,38.4892
2023-10-12T05:30:49,2420,42.8014,5.9826,13.2973,4.59931,2453.635,38.4896
2023-10-12T05:33:49,2420,42.8014,5.9826,13.2968,4.59920,2453.680,38.4891
2023-10-12T05:36:49,2420,42.8014,5.9826,13.2972,4.59920,2453.680,38.4887
2023-10-12T05:39:49,2420,42.8014,5.9826,13.2970,4.59922,2453.680,38.4891
2023-10-12T05:42:49,2420,42.8014,5.9826,13.2974,4.59919,2453.717,38.4884
2023-10-12T05:45:49,2420,42.8014,5.9826,13.2977,4.59926,2453.695,38.4888
2023-10-12T05:48:49,2420,42.8014,5.9826,13.2970,4.59917,2453.695,38.4885
2023-10-12T05:51:49,2420,42.8014,5.9826,13.2978,4.59928,2453.695,38.4888
2023-10-12T05:54:49,2420,42.8014,5.9826,13.2973,4.59925,2453.695,38.4891
2023-10-12T05:57:49,2420,42.8014,5.9826,13.2973,4.59929,2453.717,38.4894
2023-10-12T06:00:50,2420,42.8014,5.9826,13.2969,4.59917,2453.695,38.4887
2023-10-12T06:03:49,2420,42.8014,5.9826,13.2973,4.59919,2453.717,38.4884
2023-10-12T06:06:49,2420,42.8014,5.9826,13.2969,4.59919,2453.709,38.4889
2023-10-12T06:09:49,2420,42.8014,5.9826,13.2980,4.59937,2453.695,38.4894
2023-10-12T06:12:49,2420,42.8014,5.9826,13.2979,4.59931,2453.695,38.4891
2023-10-12T06:15:49,2420,42.8014,5.9826,13.2970,4.59922,2453.717,38.4890
2023-10-12T06:18:49,2420,42.8014,5.9826,13.2980,4.59922,2453.717,38.4880
2023-10-12T06:21:49,2420,42.8014,5.9826,13.2971,4.59920,2453.695,38.4888
2023-10-12T06:24:49,2420,42.8014,5.9826,13.2981,4.59917,2453.717,38.4875
2023-10-12T06:27:49,2420,42.8014,5.9826,13.2970,4.59926,2453.695,38.4895
2023-10-12T06:30:49,2420,42.8014,5.9826,13.2977,4.59922,2453.717,38.4884
2023-10-12T06:33:49,2420,42.8014,5.9826,13.2982,4.59919,2453.695,38.4876
2023-10-12T06:36:49,2420,42.8014,5.9826,13.2979,4.59937,2453.695,38.4896
2023-10-12T06:39:49,2420,42.8014,5.9826,13.2991,4.59925,2453.695,38.4873
2023-10-12T06:42:49,2420,42.8014,5.9826,13.2974,4.59924,2453.717,38.4889
2023-10-12T06:45:49,2420,42.8014,5.9826,13.2972,4.59920,2453.695,38.4887
2023-10-12T06:48:49,2420,42.8014,5.9826,13.2970,4.59926,2453.717,38.4894
2023-10-12T06:51:49,2420,42.8014,5.9826,13.2969,4.59926,2453.717,38.4895
2023-10-12T06:54:49,2420,42.8014,5.9826,13.2970,4.59920,2453.695,38.4889
2023-10-12T06:57:49,2420,42.8014,5.9826,13.2973,4.59926,2453.695,38.4892
2023-10-12T07:00:49,2420,42.8014,5.9826,13.2978,4.59920,2453.695,38.4881
2023-10-12T07:03:49,2420,42.8014,5.9826,13.2975,4.59931,2453.717,38.4895
2023-10-12T07:06:49,2420,42.8014,5.9826,13.2979,4.59929,2453.695,38.4889
2023-10-12T07:09:49,2420,42.8014,5.9826,13.2969,4.59926,2453.695,38.4896
2023-10-12T07:12:49,2420,42.8014,5.9826,13.2966,4.59911,2453.717,38.4884
2023-10-12T07:15:49,2420,42.8014,5.9826,13.2974,4.59925,2453.717,38.4889
2023-10-12T07:18:49,2420,42.8014,5.9826,13.2979,4.59925,2453.680,38.4885
2023-10-12T07:21:49,2420,42.8014,5.9826,13.2974,4.59921,2453.657,38.4886
2023-10-12T07:24:49,2420,42.8014,5.9826,13.2973,4.59927,2453.695,38.4892
2023-10-12T07:27:49,2420,42.8014,5.9826,13.2973,4.59928,2453.672,38.4894
2023-10-12T09:03:49,2420,42.8014,5.9826,13.2968,4.59920,2453.672,38.4892
2023-10-12T09:06:49,2420,42.8014,5.9826,13.2972,4.59916,2453.672,38.4883
2023-10-12T09:09:49,2420,42.8014,5.9826,13.2975,4.59926,2453.672,38.4890
2023-10-12T09:12:49,2420,42.8014,5.9826,13.2971,4.59921,2453.672,38.4889
2023-10-12T09:15:49,2420,42.8014,5.9826,13.2968,4.59917,2453.649,38.4887
2023-10-12T09:18:49,2420,42.8014,5.9826,13.2968,4.59920,2453.649,38.4890
2023-10-12T09:21:49,2420,42.8014,5.9826,13.2968,4.59914,2453.635,38.4885
2023-10-12T09:24:49,2420,42.8014,5.9826,13.2971,4.59919,2453.649,38.4887
2023-10-12T09:27:49,2420,42.8014,5.9826,13.2973,4.59917,2453.649,38.4883
2023-10-12T09:30:49,2420,42.8014,5.9826,13.2973,4.59919,2453.649,38.4885
2023-10-12T09:33:49,2420,42.8014,5.9826,13.2970,4.59923,2453.649,38.4893
2023-10-12T09:36:49,2420,42.8014,5.9826,13.2975,4.59916,2453.627,38.4881
2023-10-12T09:39:49,2420,42.8014,5.9826,13.2978,4.59915,2453.604,38.4877
2023-10-12T09:42:49,2420,42.8014,5.9826,13.2975,4.59918,2453.627,38.4883
2023-10-12T09:45:49,2420,42.8014,5.9826,13.2974,4.59919,2453.649,38.4884
2023-10-12T09:48:49,2420,42.8014,5.9826,13.2978,4.59920,2453.627,38.4882
2023-10-12T09:51:49,2420,42.8014,5.9826,13.2973,4.59916,2453.641,38.4882
2023-10-12T09:54:49,2420,42.8014,5.9826,13.2974,4.59917,2453.604,38.4883
2023-10-12T09:57:49,2420,42.8014,5.9826,13.2970,4.59920,2453.604,38.4889
2023-10-12T10:00:49,2420,42.8014,5.9826,13.2973,4.59918,2453.627,38.4885
2023-10-12T10:03:49,2420,42.8014,5.9826,13.2970,4.59916,2453.612,38.4885
2023-10-12T10:06:49,2420,42.8014,5.9826,13.2978,4.59924,2453.604,38.4885
2023-10-12T10:12:49,2420,42.8014,5.9826,13.2975,4.59920,2453.590,38.4885
2023-10-12T10:15:49,2420,42.8014,5.9826,13.2978,4.59919,2453.635,38.4881
2023-10-12T10:18:49,2420,42.8014,5.9826,13.2981,4.59927,2453.604,38.4885
2023-10-12T10:21:49,2420,42.8014,5.9826,13.2975,4.59927,2453.596,38.4891
2023-10-12T10:24:49,2420,42.8014,5.9826,13.2975,4.59924,2453.604,38.4888
2023-10-12T10:27:49,2420,42.8014,5.9826,13.2975,4.59923,2453.627,38.4887
2023-10-12T10:30:49,2420,42.8014,5.9826,13.2966,4.59917,2453.604,38.4890
2023-10-12T10:33:49,2420,42.8014,5.9826,13.2968,4.59920,2453.582,38.4891
2023-10-12T10:36:49,2420,42.8014,5.9826,13.2975,4.59922,2453.604,38.4886
2023-10-12T10:39:49,2420,42.8014,5.9826,13.2986,4.59924,2453.604,38.4877
2023-10-12T10:42:49,2420,42.8014,5.9826,13.2968,4.59918,2453.582,38.4890
2023-10-12T10:45:49,2420,42.8014,5.9826,13.2968,4.59922,2453.604,38.4893
2023-10-12T10:48:49,2420,42.8014,5.9826,13.2968,4.59915,2453.604,38.4887
2023-10-12T10:51:49,2420,42.8014,5.9826,13.2970,4.59918,2453.582,38.4888
2023-10-12T10:54:49,2420,42.8014,5.9826,13.2978,4.59926,2453.582,38.4888
2023-10-12T10:57:49,2420,42.8014,5.9826,13.2969,4.59919,2453.596,38.4889
2023-10-12T11:00:49,2420,42.8014,5.9826,13.2978,4.59923,2453.604,38.4885
2023-10-12T11:03:29,2420,42.8014,5.9826,13.2971,4.59921,2453.604,38.4889
2023-10-12T11:06:49,2420,42.8014,5.9826,13.2969,4.59918,2453.582,38.4888
2023-10-12T11:09:49,2420,42.8014,5.9826,13.2974,4.59928,2453.559,38.4893
2023-10-12T11:12:49,2420,42.8014,5.9826,13.2971,4.59933,2453.582,38.4900
2023-10-12T11:15:49,2420,42.8014,5.9826,13.2973,4.59927,2453.604,38.4893
2023-10-12T11:18:49,2420,42.8014,5.9826,13.2986,4.59929,2453.604,38.4882
2023-10-12T11:21:49,2420,42.8014,5.9826,13.2982,4.59929,2453.604,38.4886
2023-10-12T11:24:49,2420,42.8014,5.9826,13.2978,4.59927,2453.582,38.4888
2023-10-12T11:27:49,2420,42.8014,5.9826,13.2990,4.59919,2453.559,38.4868
2023-10-12T11:30:50,2420,42.8014,5.9826,13.2975,4.59928,2453.559,38.4893
2023-10-12T11:33:49,2420,42.8014,5.9826,13.2978,4.59962,2453.582,38.4922
2023-10-12T11:36:49,2420,42.8014,5.9826,13.2978,4.59933,2453.559,38.4894
2023-10-12T11:39:49,2420,42.8014,5.9826,13.2982,4.59936,2453.582,38.4893
2023-10-12T11:42:49,2420,42.8014,5.9826,13.2971,4.59923,2453.559,38.4891
2023-10-12T11:45:49,2420,42.8014,5.9826,13.2984,4.59927,2453.582,38.4882
2023-10-12T11:48:49,2420,42.8014,5.9826,13.2981,4.59927,2453.537,38.4885
2023-10-12T11:51:49,2420,42.8014,5.9826,13.2980,4.59930,2453.559,38.4889
2023-10-12T11:54:49,2420,42.8014,5.9826,13.2988,4.59940,2453.582,38.4890
2023-10-12T11:57:49,2420,42.8014,5.9826,13.2996,4.59935,2453.582,38.4878
2023-10-12T12:00:49,2420,42.8014,5.9826,13.2986,4.59943,2453.582,38.4895
2023-10-12T12:03:49,2420,42.8014,5.9826,13.2979,4.59928,2453.582,38.4888
2023-10-12T12:06:49,2420,42.8014,5.9826,13.2973,4.59926,2453.559,38.4892
2023-10-12T12:09:49,2420,42.8014,5.9826,13.2982,4.59931,2453.559,38.4888
2023-10-12T12:12:49,2420,42.8014,5.9826,13.2979,4.59925,2453.582,38.4885
2023-10-12T12:15:49,2420,42.8014,5.9826,13.2973,4.59927,2453.559,38.4893
2023-10-12T12:18:49,2420,42.8014,5.9826,13.2982,4.59934,2453.559,38.4890
2023-10-12T12:21:49,2420,42.8014,5.9826,13.2975,4.59937,2453.544,38.4900
2023-10-12T12:24:49,2420,42.8014,5.9826,13.2985,4.59940,2453.582,38.4894
2023-10-12T12:27:49,2420,42.8014,5.9826,13.2981,4.59929,2453.604,38.4887
2023-10-12T12:30:49,2420,42.8014,5.9826,13.2991,4.59931,2453.596,38.4878
2023-10-12T12:33:49,2420,42.8014,5.9826,13.2992,4.59934,2453.559,38.4880
2023-10-12T12:36:49,2420,42.8014,5.9826,13.2988,4.59936,2453.582,38.4887
2023-10-12T12:39:49,2420,42.8014,5.9826,13.2990,4.59939,2453.582,38.4887
2023-10-12T12:42:49,2420,42.8014,5.9826,13.2975,4.59935,2453.582,38.4899
2023-10-12T12:45:49,2420,42.8014,5.9826,13.2976,4.59928,2453.582,38.4890
2023-10-12T12:48:49,2420,42.8014,5.9826,13.2981,4.59925,2453.582,38.4883
2023-10-12T12:51:49,2420,42.8014,5.9826,13.2979,4.59923,2453.559,38.4884
2023-10-12T12:54:49,2420,42.8014,5.9826,13.2982,4.59930,2453.582,38.4887
2023-10-12T12:57:49,2420,42.8014,5.9826,13.2973,4.59935,2453.582,38.4901
2023-10-12T13:00:49,2420,42.8014,5.9826,13.2985,4.59940,2453.582,38.4894
2023-10-12T13:03:49,2420,42.8014,5.9826,13.2974,4.59940,2453.559,38.4905
2023-10-12T13:06:49,2420,42.8014,5.9826,13.2986,4.59936,2453.582,38.4888
2023-10-12T13:09:49,2420,42.8014,5.9826,13.2986,4.59943,2453.604,38.4895
2023-10-12T13:12:49,2420,42.8014,5.9826,13.2975,4.59929,2453.582,38.4893
2023-10-12T13:15:49,2420,42.8014,5.9826,13.2975,4.59933,2453.582,38.4896
2023-10-12T13:18:49,2420,42.8014,5.9826,13.2979,4.59935,2453.582,38.4894
2023-10-12T13:21:49,2420,42.8014,5.9826,13.2983,4.59932,2453.477,38.4888
2023-10-12T13:24:49,2420,42.8014,5.9826,13.2979,4.59932,2453.491,38.4892
2023-10-12T13:27:49,2420,42.8014,5.9826,13.2976,4.59926,2453.537,38.4889
2023-10-12T13:30:49,2420,42.8014,5.9826,13.2968,4.59930,2453.522,38.4900
2023-10-12T13:33:49,2420,42.8014,5.9826,13.2979,4.59928,2453.537,38.4888
2023-10-12T13:36:49,2420,42.8014,5.9826,13.2982,4.59927,2453.537,38.4884
2023-10-12T13:39:49,2420,42.8014,5.9826,13.2978,4.59930,2453.522,38.4891
2023-10-12T13:42:49,2420,42.8014,5.9826,13.2973,4.59931,2453.522,38.4896
2023-10-12T13:45:49,2420,42.8014,5.9826,13.2970,4.59920,2453.559,38.4890
2023-10-12T13:48:49,2420,42.8014,5.9826,13.2970,4.59924,2453.544,38.4893
2023-10-12T13:51:49,2420,42.8014,5.9826,13.2972,4.59926,2453.582,38.4893
2023-10-12T13:54:49,2420,42.8014,5.9826,13.2968,4.59926,2453.559,38.4897
2023-10-12T13:57:49,2420,42.8014,5.9826,13.2973,4.59930,2453.522,38.4896
2023-10-12T14:00:49,2420,42.8014,5.9826,13.2973,4.59927,2453.559,38.4893
2023-10-12T14:03:49,2420,42.8014,5.9826,13.2972,4.59927,2453.537,38.4894
2023-10-12T14:06:49,2420,42.8014,5.9826,13.2974,4.59919,2453.604,38.4884
2023-10-12T14:09:49,2420,42.8014,5.9826,13.2980,4.59926,2453.582,38.4885
2023-10-12T14:12:49,2420,42.8014,5.9826,13.2973,4.59923,2453.537,38.4890
2023-10-12T14:15:49,2420,42.8014,5.9826,13.2978,4.59931,2453.559,38.4892
2023-10-12T14:18:49,2420,42.8014,5.9826,13.2979,4.59925,2453.559,38.4885
2023-10-12T14:21:49,2420,42.8014,5.9826,13.2978,4.59930,2453.604,38.4890
2023-10-12T14:24:49,2420,42.8014,5.9826,13.2974,4.59927,2453.582,38.4892
2023-10-12T14:27:49,2420,42.8014,5.9826,13.2982,4.59932,2453.567,38.4889
2023-10-12T14:30:49,2420,42.8014,5.9826,13.2973,4.59920,2453.604,38.4886
2023-10-12T14:33:49,2420,42.8014,5.9826,13.2967,4.59929,2453.582,38.4901
2023-10-12T14:36:49,2420,42.8014,5.9826,13.2978,4.59921,2453.559,38.4883
2023-10-12T14:39:49,2420,42.8014,5.9826,13.2982,4.59928,2453.604,38.4885
2023-10-12T14:42:49,2420,42.8014,5.9826,13.2974,4.59915,2453.672,38.4880
2023-10-12T14:45:49,2420,42.8014,5.9826,13.2975,4.59932,2453.544,38.4896
2023-10-12T14:48:49,2420,42.8014,5.9826,13.2971,4.59920,2453.672,38.4887
2023-10-12T14:51:49,2420,42.8014,5.9826,13.2971,4.59920,2453.664,38.4887
2023-10-12T14:54:49,2420,42.8014,5.9826,13.2974,4.59918,2453.627,38.4883
2023-10-12T14:57:49,2420,42.8014,5.9826,13.2973,4.59942,2453.687,38.4906
2023-10-12T15:00:49,2420,42.8014,5.9826,13.2973,4.59921,2453.604,38.4887
2023-10-12T15:03:49,2420,42.8014,5.9826,13.2976,4.59924,2453.635,38.4887
2023-10-12T15:06:49,2420,42.8014,5.9826,13.2978,4.59920,2453.649,38.4882
2023-10-12T15:09:49,2420,42.8014,5.9826,13.2980,4.59923,2453.672,38.4882
2023-10-12T15:12:49,2420,42.8014,5.9826,13.2969,4.59916,2453.627,38.4886
2023-10-12T15:15:49,2420,42.8014,5.9826,13.2971,4.59920,2453.649,38.4888
2023-10-12T15:18:49,2420,42.8014,5.9826,13.2975,4.59947,2453.687,38.4910
2023-10-12T15:21:49,2420,42.8014,5.9826,13.2977,4.59926,2453.649,38.4888
2023-10-12T15:24:49,2420,42.8014,5.9826,13.2980,4.59918,2453.672,38.4877
2023-10-12T15:27:49,2420,42.8014,5.9826,13.2972,4.59916,2453.649,38.4883
2023-10-12T15:30:49,2420,42.8014,5.9826,13.2971,4.59920,2453.649,38.4888
2023-10-12T15:33:49,2420,42.8014,5.9826,13.2969,4.59914,2453.709,38.4884
2023-10-12T15:36:49,2420,42.8014,5.9826,13.2972,4.59918,2453.649,38.4885
2023-10-12T15:39:49,2420,42.8014,5.9826,13.2970,4.59918,2453.695,38.4887
2023-10-12T15:42:49,2420,42.8014,5.9826,13.2974,4.59917,2453.695,38.4882
2023-10-12T15:45:49,2420,42.8014,5.9826,13.2971,4.59917,2453.657,38.4885
2023-10-12T15:48:49,2420,42.8014,5.9826,13.2975,4.59916,2453.672,38.4880
2023-10-12T15:51:49,2420,42.8014,5.9826,13.2969,4.59917,2453.672,38.4887
2023-10-12T15:54:49,2420,42.8014,5.9826,13.2973,4.59922,2453.695,38.4887
2023-10-12T15:57:49,2420,42.8014,5.9826,13.2973,4.59917,2453.695,38.4883
2023-10-12T16:00:50,2420,42.8014,5.9826,13.2972,4.59917,2453.695,38.4884
2023-10-12T16:03:49,2420,42.8014,5.9826,13.2971,4.59922,2453.695,38.4889
2023-10-12T16:06:49,2420,42.8014,5.9826,13.2971,4.59919,2453.695,38.4887
2023-10-12T16:09:49,2420,42.8014,5.9826,13.2970,4.59920,2453.672,38.4889
2023-10-12T16:12:49,2420,42.8014,5.9826,13.2969,4.59920,2453.680,38.4889
2023-10-12T16:15:49,2420,42.8014,5.9826,13.2973,4.59917,2453.732,38.4883
2023-10-12T16:18:49,2420,42.8014,5.9826,13.2971,4.59922,2453.717,38.4889
2023-10-12T16:21:49,2420,42.8014,5.9826,13.2973,4.59925,2453.709,38.4891
2023-10-12T16:24:49,2420,42.8014,5.9826,13.2972,4.59921,2453.717,38.4888
2023-10-12T16:27:49,2420,42.8014,5.9826,13.2972,4.59920,2453.725,38.4887
2023-10-12T16:30:49,2420,42.8014,5.9826,13.2975,4.59917,2453.709,38.4881
2023-10-12T16:33:49,2420,42.8014,5.9826,13.2968,4.59917,2453.717,38.4888
2023-10-12T16:36:49,2420,42.8014,5.9826,13.2975,4.59921,2453.717,38.4885
2023-10-12T16:39:49,2420,42.8014,5.9826,13.2975,4.59917,2453.717,38.4881
2023-10-12T16:42:49,2420,42.8014,5.9826,13.2968,4.59919,2453.740,38.4890
2023-10-12T16:45:49,2420,42.8014,5.9826,13.2968,4.59916,2453.740,38.4887
2023-10-12T16:48:49,2420,42.8014,5.9826,13.2970,4.59915,2453.762,38.4883
2023-10-12T16:51:49,2420,42.8014,5.9826,13.2969,4.59919,2453.740,38.4889
2023-10-12T16:54:49,2420,42.8014,5.9826,13.2973,4.59917,2453.740,38.4882
2023-10-12T16:57:49,2420,42.8014,5.9826,13.2970,4.59918,2453.762,38.4887
2023-10-12T17:00:49,2420,42.8014,5.9826,13.2972,4.59920,2453.762,38.4886
2023-10-12T17:03:49,2420,42.8014,5.9826,13.2967,4.59916,2453.740,38.4888
2023-10-12T17:06:49,2420,42.8014,5.9826,13.2969,4.59916,2453.740,38.4886
2023-10-12T17:09:49,2420,42.8014,5.9826,13.2969,4.59916,2453.740,38.4886
2023-10-12T17:12:49,2420,42.8014,5.9826,13.2970,4.59915,2453.777,38.4884
2023-10-12T17:15:49,2420,42.8014,5.9826,13.2968,4.59915,2453.770,38.4885
2023-10-12T17:18:49,2420,42.8014,5.9826,13.2968,4.59916,2453.762,38.4886
2023-10-12T17:21:49,2420,42.8014,5.9826,13.2972,4.59914,2453.762,38.4881
2023-10-12T17:24:49,2420,42.8014,5.9826,13.2970,4.59914,2453.762,38.4883
2023-10-12T17:27:49,2420,42.8014,5.9826,13.2973,4.59914,2453.740,38.4880
2023-10-12T17:30:49,2420,42.8014,5.9826,13.2971,4.59923,2453.740,38.4890
2023-10-12T17:33:49,2420,42.8014,5.9826,13.2970,4.59915,2453.748,38.4883
2023-10-12T17:36:49,2420,42.8014,5.9826,13.2967,4.59913,2453.717,38.4885
2023-10-12T17:39:49,2420,42.8014,5.9826,13.2968,4.59915,2453.740,38.4887